SAZN

Neuquén/Presidente Perón International Airport

Airport
ICAO code
SAZN
IATA Code
NQN
Summary
ICAO Region
CARSAM
ICAO Territory
Location

Neuquén, Neuquén

Serving
Neuquén
Elevation
961 ft
Coordinates
38° 57' 7" S , 68° 8' 25" W
Metar
Observation
SAZN 021500Z 27006KT CAVOK 28/08 Q1011
Station
Neuquen Aerodrome
Date/Time
2022-12-02 15:00:00
Wind direction
270°
Wind speed
06 kts
Lowest cloud amount
clouds and visibility OK
Temperature
28°C
Dew point
8°C
Humidity
28%
QNH
1011 hPa
Weather condition
n/a

Presidente Perón International Airport is an airport in Neuquén Province, Argentina serving the cities of Neuquén, Cipolletti, Plottier, Centenario, and General Roca.

Runways

Designator Length Width Surface Rops
9/27 2570 45 ASP Yes/Yes

Airport map

Aerial View

SKYbrary Partners:

Safety knowledge contributed by: